Regional Weather Roundup
Issued by NWS Green Bay, WI

Home | Current Version | Previous Version | Text Only | Print | Product List | Glossary On
Versions: 1 2 3 4 5 6 7 8 9 10 11 12 13 14 15 16 17 18 19 20 21 22 23 24 25 26 27 28 29 30 31 32 33 34 35 36 37 38 39 40 41 42 43 44 45 46 47 48 49 50
000
ASUS43 KGRB 231900
RWRGRB

NORTH-CENTRAL AND NORTHEAST WISCONSIN REGIONAL WEATHER ROUNDUP
NATIONAL WEATHER SERVICE GREEN BAY WI
200 PM CDT FRI JUN 23 2017

WIZ005-009-010>012-018-019-232000-
NORTH CENTRAL WISCONSIN

CITY           SKY/WX    TMP DP  RH WIND       PRES   REMARKS
IRONWOOD       MOSUNNY   65  50  58 NW16G23   29.69F
MANITOWISH WTR NOT AVBL
ARBOR VITAE    NOT AVBL
EAGLE RIVER    NOT AVBL
LAND O LAKES   CLOUDY    65  47  53 NW12G21   29.70R
RHINELANDER    PTSUNNY   69  51  52 NW16G25   29.70R
PHILLIPS       NOT AVBL
ANTIGO         NOT AVBL
TOMAHAWK       NOT AVBL
MERRILL        CLOUDY    69  51  52 NW17G24   29.70S
$$

WIZ013-073-232000-
NORTHEAST WISCONSIN

CITY           SKY/WX    TMP DP  RH WIND       PRES   REMARKS
IRON MOUNTAIN  PTSUNNY   72  45  37 NW17      29.62
MARINETTE      MOSUNNY   77  47  34 W8G17     29.61S
$$

WIZ017-030-035>037-045-232000-
CENTRAL WISCONSIN

CITY           SKY/WX    TMP DP  RH WIND       PRES   REMARKS
MEDFORD        NOT AVBL
WAUSAU         CLOUDY    69  51  52 NW13G24   29.69R
MOSINEE        PTSUNNY   72  52  49 W20G25    29.72R
MARSHFIELD     MOSUNNY   70  51  51 NW21G29   29.72R
WISC RAPIDS    LGT RAIN  75  51  43 W15G21    29.72R
STEVENS POINT  NOT AVBL
WAUPACA        MOSUNNY   78  47  33 W16G25    29.68R
SHAWANO        NOT AVBL
CLINTONVILLE   NOT AVBL
WAUTOMA        MOSUNNY   78  53  41 W20       29.69R
$$

WIZ038-039-048-051-232000-
FOX VALLEY

CITY           SKY/WX    TMP DP  RH WIND       PRES   REMARKS
NWS GREEN BAY  MOSUNNY   77  55  46 W20G25    29.64S
APPLETON       PTSUNNY   75  46  35 W16G24    29.66S
OSHKOSH        MOSUNNY   77  54  44 W14G22    29.66S
FOND DU LAC    MOSUNNY   78  51  38 W16G25    29.67S
$$

WIZ022-050-052-232000-
EAST CENTRAL WISCONSIN

CITY           SKY/WX    TMP DP  RH WIND       PRES   REMARKS
EPHRAIM        NOT AVBL
WASHINGTON ISL NOT AVBL
STURGEON BAY     N/A     76  52  43 W15         N/A
MANITOWOC      NOT AVBL
SHEBOYGAN      MOSUNNY   78  53  41 W21G29    29.66F
$$

LMZ563-521-522-541>543-232000-
LAKESHORE

STATION/POSITION TIME  TEMP    WIND        PRES    VSBY  WAVE
                       AIR SEA DIR/SP/G                  HT/PER
                 (UTC) (F)     (DEG/KT/KT) (MB)    (MI)  (FT/S)
SHEBOYGAN LKSHOR 1800   76     280/ 14/ 18 1003.7F
KEWAUNEE LKSHORE 1830   77     280/ 10/ 17 1003.3S
NORTHPORT PIER   1840   76     270/  5/ 15 1002.4S
N MID LAKE BUOY  1750   60 57  200/  8/  8 1003.2F         1
S GREEN BAY BUOY 1830   73     250/ 16/ 19 1003.0F
CHAMBERS ISLAND  1840   76     230/  8/ 15 1002.4S
MENOMINEE LKSHOR 1830          250/  9/ 15 1001.8F
$$



USA.gov is the U.S. government's official web portal to all federal, state and local government web resources and services.